• In Lithuania
  • List of Countries
  • For 7 days
  • Water Temperature
  • Satellite Maps
  • Weather Map
  • Weather Widgets
  • user-avatar
    Login

    Hourly Weather Hobart

    Today, 24 October, Tuesday

    Time Temperature Precipitation Wind Pressure Humidity
    00:00 +11°C° 0 mm 1 mps 745 mmHg 97%
    01:00 +11°C° 0 mm 1 mps 745 mmHg 97%
    02:00 +10°C° 0 mm 2 mps 745 mmHg 97%
    03:00 +10°C° 0 mm 2 mps 745 mmHg 97%
    04:00 +11°C° 0 mm 1 mps 745 mmHg 96%
    05:00 +11°C° 0.1 mm 1 mps 745 mmHg 94%
    06:00 +12°C° 0.1 mm 1 mps 746 mmHg 92%
    07:00 +13°C° 0.1 mm 1 mps 746 mmHg 90%
    08:00 +14°C° 0.2 mm 2 mps 746 mmHg 85%
    09:00 +15°C° 0.2 mm 2 mps 746 mmHg 81%
    10:00 +16°C° 0 mm 2 mps 746 mmHg 78%
    11:00 +16°C° 0.2 mm 2 mps 746 mmHg 73%
    12:00 +17°C° 0.2 mm 3 mps 746 mmHg 69%
    13:00 +17°C° 0.2 mm 3 mps 746 mmHg 64%
    14:00 +17°C° 0.1 mm 3 mps 746 mmHg 64%
    15:00 +17°C° 0.1 mm 3 mps 746 mmHg 64%
    16:00 +16°C° 0.1 mm 3 mps 746 mmHg 64%
    17:00 +13°C° 0 mm 3 mps 746 mmHg 71%
    18:00 +13°C° 0 mm 2 mps 746 mmHg 79%
    19:00 +10°C° 0 mm 2 mps 746 mmHg 86%
    20:00 +9°C° 0 mm 2 mps 746 mmHg 90%
    21:00 +8°C° 0 mm 2 mps 747 mmHg 93%
    22:00 +7°C° 0 mm 2 mps 747 mmHg 97%
    23:00 +6°C° 0 mm 2 mps 747 mmHg 97%

    Tomorrow, 25 October, Wednesday

    Time Temperature Precipitation Wind Pressure Humidity
    00:00 +6°C° 0 mm 2 mps 747 mmHg 97%
    01:00 +5°C° 0 mm 2 mps 747 mmHg 98%
    02:00 +5°C° 0 mm 2 mps 747 mmHg 98%
    03:00 +5°C° 0 mm 2 mps 746 mmHg 98%
    04:00 +5°C° 0 mm 2 mps 746 mmHg 97%
    05:00 +6°C° 0 mm 2 mps 746 mmHg 94%
    06:00 +7°C° 0 mm 2 mps 746 mmHg 90%
    07:00 +8°C° 0 mm 2 mps 746 mmHg 86%
    08:00 +12°C° 0 mm 1 mps 747 mmHg 71%
    09:00 +15°C° 0 mm 1 mps 747 mmHg 56%
    10:00 +20°C° 0 mm 1 mps 747 mmHg 42%
    11:00 +19°C° 0 mm 2 mps 746 mmHg 41%
    12:00 +19°C° 0 mm 2 mps 746 mmHg 40%
    13:00 +19°C° 0 mm 3 mps 746 mmHg 39%
    14:00 +18°C° 0 mm 3 mps 746 mmHg 43%
    15:00 +17°C° 0 mm 3 mps 745 mmHg 48%
    16:00 +17°C° 0 mm 3 mps 745 mmHg 52%
    17:00 +14°C° 0 mm 3 mps 745 mmHg 61%
    18:00 +13°C° 0 mm 2 mps 745 mmHg 71%
    19:00 +10°C° 0 mm 2 mps 746 mmHg 80%
    20:00 +10°C° 0 mm 1 mps 746 mmHg 86%
    21:00 +9°C° 0 mm 1 mps 746 mmHg 91%
    22:00 +7°C° 0 mm 0 mps 746 mmHg 96%
    23:00 +7°C° 0 mm 0 mps 746 mmHg 97%

    Day after tomorrow, 26 October, Thursday

    Time Temperature Precipitation Wind Pressure Humidity
    00:00 +6°C° 0 mm 0 mps 746 mmHg 97%
    01:00 +6°C° 0 mm 0 mps 746 mmHg 98%
    02:00 +6°C° 0 mm 0 mps 745 mmHg 98%
    03:00 +6°C° 0 mm 0 mps 745 mmHg 97%
    04:00 +6°C° 0 mm 0 mps 745 mmHg 97%
    05:00 +8°C° 0 mm 1 mps 745 mmHg 93%
    06:00 +10°C° 0 mm 1 mps 745 mmHg 88%
    07:00 +11°C° 0 mm 1 mps 745 mmHg 83%
    08:00 +13°C° 0 mm 1 mps 745 mmHg 77%
    09:00 +15°C° 0 mm 1 mps 746 mmHg 70%
    10:00 +16°C° 0 mm 1 mps 746 mmHg 63%
    11:00 +17°C° 0 mm 2 mps 745 mmHg 60%
    12:00 +18°C° 0 mm 2 mps 745 mmHg 57%
    13:00 +18°C° 0 mm 2 mps 745 mmHg 54%
    14:00 +18°C° 0 mm 2 mps 745 mmHg 58%
    15:00 +17°C° 0 mm 2 mps 745 mmHg 62%
    16:00 +16°C° 0 mm 3 mps 744 mmHg 67%
    17:00 +14°C° 0 mm 3 mps 745 mmHg 71%
    18:00 +13°C° 0 mm 3 mps 745 mmHg 76%
    19:00 +12°C° 0 mm 3 mps 745 mmHg 81%
    20:00 +11°C° 0 mm 3 mps 745 mmHg 85%
    21:00 +11°C° 0 mm 3 mps 746 mmHg 89%
    22:00 +10°C° 0 mm 2 mps 746 mmHg 92%
    23:00 +10°C° 0 mm 2 mps 746 mmHg 93%

    27 October, Friday

    Time Temperature Precipitation Wind Pressure Humidity
    00:00 +9°C° 0 mm 2 mps 745 mmHg 93%
    01:00 +9°C° 0 mm 2 mps 745 mmHg 93%
    02:00 +8°C° 0 mm 2 mps 745 mmHg 94%
    03:00 +8°C° 0 mm 2 mps 745 mmHg 96%
    04:00 +7°C° 0 mm 2 mps 744 mmHg 97%
    05:00 +9°C° 0 mm 2 mps 744 mmHg 90%
    06:00 +10°C° 0 mm 2 mps 745 mmHg 84%
    07:00 +12°C° 0 mm 2 mps 745 mmHg 78%
    08:00 +14°C° 0 mm 3 mps 744 mmHg 66%
    09:00 +17°C° 0 mm 3 mps 744 mmHg 53%
    10:00 +20°C° 0 mm 4 mps 743 mmHg 41%
    11:00 +21°C° 0 mm 5 mps 742 mmHg 38%
    12:00 +22°C° 0 mm 5 mps 742 mmHg 35%
    13:00 +23°C° 0 mm 6 mps 741 mmHg 32%
    14:00 +23°C° 0 mm 6 mps 740 mmHg 35%
    15:00 +23°C° 0 mm 6 mps 740 mmHg 37%
    16:00 +22°C° 0 mm 6 mps 739 mmHg 40%
    17:00 +20°C° 0 mm 5 mps 740 mmHg 49%
    18:00 +17°C° 0 mm 5 mps 740 mmHg 57%
    19:00 +15°C° 0 mm 4 mps 740 mmHg 66%
    20:00 +14°C° 0 mm 4 mps 740 mmHg 71%
    21:00 +14°C° 0 mm 4 mps 740 mmHg 76%
    22:00 +13°C° 0 mm 4 mps 739 mmHg 81%
    23:00 +13°C° 0 mm 4 mps 738 mmHg 81%

    28 October, Saturday

    Time Temperature Precipitation Wind Pressure Humidity
    00:00 +13°C° 0 mm 5 mps 737 mmHg 80%
    01:00 +13°C° 0 mm 5 mps 736 mmHg 80%
    02:00 +13°C° 0.2 mm 5 mps 736 mmHg 83%
    03:00 +13°C° 0.2 mm 4 mps 735 mmHg 85%
    04:00 +13°C° 0.2 mm 4 mps 735 mmHg 88%
    05:00 +14°C° 0.1 mm 4 mps 735 mmHg 84%
    06:00 +15°C° 0.1 mm 4 mps 735 mmHg 81%
    07:00 +17°C° 0.1 mm 4 mps 736 mmHg 77%
    08:00 +16°C° 0 mm 5 mps 736 mmHg 66%
    09:00 +17°C° 0 mm 5 mps 737 mmHg 55%
    10:00 +17°C° 0 mm 5 mps 737 mmHg 44%
    11:00 +17°C° 0 mm 5 mps 737 mmHg 45%
    12:00 +17°C° 0 mm 5 mps 737 mmHg 46%
    13:00 +19°C° 0 mm 5 mps 738 mmHg 47%
    14:00 +17°C° 0 mm 5 mps 738 mmHg 48%
    15:00 +17°C° 0 mm 5 mps 738 mmHg 49%
    16:00 +17°C° 0 mm 5 mps 738 mmHg 51%
    17:00 +15°C° 0 mm 4 mps 738 mmHg 57%
    18:00 +14°C° 0 mm 3 mps 739 mmHg 64%
    19:00 +13°C° 0 mm 2 mps 739 mmHg 71%
    20:00 +13°C° 0 mm 2 mps 739 mmHg 71%
    21:00 +12°C° 0 mm 3 mps 739 mmHg 72%
    22:00 +12°C° 0 mm 3 mps 739 mmHg 72%
    23:00 +11°C° 0 mm 3 mps 739 mmHg 74%

    29 October, Sunday

    Time Temperature Precipitation Wind Pressure Humidity
    00:00 +10°C° 0 mm 3 mps 738 mmHg 76%
    01:00 +10°C° 0 mm 3 mps 738 mmHg 79%
    02:00 +10°C° 0 mm 3 mps 738 mmHg 78%
    03:00 +11°C° 0 mm 4 mps 738 mmHg 77%
    04:00 +11°C° 0 mm 4 mps 737 mmHg 76%
    05:00 +12°C° 0 mm 4 mps 737 mmHg 72%
    06:00 +14°C° 0 mm 4 mps 737 mmHg 68%
    07:00 +15°C° 0 mm 5 mps 737 mmHg 64%
    08:00 +17°C° 0 mm 5 mps 737 mmHg 57%
    09:00 +19°C° 0 mm 6 mps 736 mmHg 50%
    10:00 +21°C° 0 mm 6 mps 736 mmHg 43%
    11:00 +21°C° 0 mm 7 mps 735 mmHg 42%
    12:00 +22°C° 0 mm 7 mps 734 mmHg 40%
    13:00 +22°C° 0 mm 8 mps 733 mmHg 39%
    14:00 +22°C° 0 mm 8 mps 732 mmHg 39%
    15:00 +22°C° 0 mm 8 mps 731 mmHg 39%
    16:00 +22°C° 0 mm 8 mps 730 mmHg 39%
    17:00 +18°C° 0.5 mm 7 mps 730 mmHg 53%
    18:00 +16°C° 0.5 mm 6 mps 730 mmHg 68%
    19:00 +14°C° 0.5 mm 5 mps 731 mmHg 82%
    20:00 +11°C° 1.6 mm 6 mps 731 mmHg 86%
    21:00 +9°C° 1.6 mm 6 mps 732 mmHg 90%
    22:00 +7°C° 1.6 mm 6 mps 733 mmHg 94%
    23:00 +7°C° 0.4 mm 6 mps 733 mmHg 93%

    30 October, Monday

    Time Temperature Precipitation Wind Pressure Humidity
    00:00 +6°C° 0.4 mm 5 mps 733 mmHg 93%
    01:00 +6°C° 0.4 mm 5 mps 734 mmHg 92%
    02:00 +5°C° 0 mm 5 mps 734 mmHg 92%
    03:00 +5°C° 0 mm 5 mps 735 mmHg 93%
    04:00 +3°C° 0 mm 5 mps 735 mmHg 93%
    05:00 +5°C° 0 mm 5 mps 736 mmHg 88%
    06:00 +6°C° 0 mm 5 mps 737 mmHg 82%
    07:00 +7°C° 0 mm 5 mps 738 mmHg 77%
    08:00 +8°C° 0 mm 5 mps 739 mmHg 66%
    09:00 +9°C° 0 mm 6 mps 740 mmHg 55%
    10:00 +11°C° 0 mm 6 mps 740 mmHg 44%
    11:00 +11°C° 0 mm 6 mps 741 mmHg 42%
    12:00 +13°C° 0 mm 6 mps 741 mmHg 40%
    13:00 +13°C° 0 mm 6 mps 742 mmHg 38%
    14:00 +13°C° 0 mm 5 mps 742 mmHg 40%
    15:00 +13°C° 0 mm 5 mps 743 mmHg 41%
    16:00 +13°C° 0 mm 5 mps 743 mmHg 42%
    17:00 +10°C° 0 mm 5 mps 744 mmHg 49%
    18:00 +8°C° 0 mm 5 mps 744 mmHg 57%
    19:00 +7°C° 0 mm 4 mps 745 mmHg 65%
    20:00 +6°C° 0 mm 4 mps 745 mmHg 68%
    21:00 +6°C° 0 mm 5 mps 745 mmHg 71%
    22:00 +5°C° 0 mm 5 mps 745 mmHg 74%
    23:00 +6°C° 0 mm 5 mps 745 mmHg 74%
    Show more